Tracking 31027 objects as of 19-Jul-2025
HD Live streaming from Space Station
objects crossing your sky now

STSAT 3

Track STSAT 3 now!
10-day predictions
STSAT 3 is classified as:


NORAD ID: 39422
Int'l Code: 2013-066G
Perigee: 560.4 km
Apogee: 587.9 km
Inclination: 97.6 °
Period: 96.0 minutes
Semi major axis: 6945 km
RCS: 0.4885 m2 (medium)
Launch date: November 21, 2013
Source: South Korea (SKOR)
Launch site: Orenburg, Russia (OREN)
Your satellite tracking list
Your tracking list is empty




NASA's NSSDC Master Catalog

Two Line Element Set (TLE):
1 39422U 13066G   25199.88988184  .00002268  00000-0  18653-3 0  9990
2 39422  97.5700 171.9444 0019837  95.3960 264.9528 14.99958285634199
Source of the keplerian elements: AFSPC